BEIDOU-2 IGSO-5 (C10)

Last updated on Mon Oct 20 2025 00:03:24 GMT+0000 (Coordinated Universal Time)

1 37948U 11073A 25291.92944473 -.00000198 00000+0 00000+0 0 9991 2 37948 48.1222 274.5293 0109448 222.0045 320.0916 1.00259070 50713
UTC large
Height (km)
Speed (km/s)
/
Latitude / Longitude
Inclination (degrees)
Orbital Period (minutes)
Azimuth
Elevation
Range (km)
Doppler Factor

Next 0 passes for location: London (51.5072 / 0.1276)

Sorry there are no passes over London.